Regional Weather Roundup
Issued by NWS

Home | Current Version | Previous Version | Graphics & Text | Print | Product List | Glossary On
Versions: 1 2 3 4 5 6 7 8 9 10 11 12 13 14 15 16 17 18 19 20 21 22 23 24 25 26 27 28 29 30 31 32 33 34 35 36 37 38 39 40 41 42 43 44 45 46 47 48 49 50
000
ASUS44 KMEG 032200
RWRTN
TENNESSEE HOURLY STATE WEATHER ROUNDUP
NATIONAL WEATHER SERVICE MEMPHIS TN
500 PM CDT THU SEP 03 2015

TNZ002-004-019-021-049-052-054-088>092-032300-
WEST TENNESSEE

CITY           SKY/WX    TMP DP  RH WIND       PRES   REMARKS
MEMPHIS INTL   MOSUNNY   93  69  45 W5        29.93F HX  98
NWS MEMPHIS      N/A    N/A N/A N/A MISG        N/A
JACKSON        MOSUNNY   91  69  48 W5        29.93F HX  96
DYERSBURG      SUNNY     91  70  49 CALM      29.93F HX  97
UNION CITY     SUNNY     91  68  46 NW5       29.92F HX  95
PARIS          SUNNY     90  66  45 NE5       29.95S HX  92
LEXINGTON      MOSUNNY   84  72  65 CALM      29.93S
$$

TNZ008-025-027-028-033-062-065-066-032300-
NORTH MIDDLE TENNESSEE

CITY           SKY/WX    TMP DP  RH WIND       PRES   REMARKS
NASHVILLE      MOSUNNY   93  60  33 E5        29.94S HX  93
CLARKSVILLE    SUNNY     90  65  43 N7        29.93F HX  92
COOKEVILLE     MOSUNNY   90  68  48 N5        29.96S HX  93
CROSSVILLE     SUNNY     85  59  41 VRB5      30.02F
$$

TNZ061-075-076-078-094-096-097-032300-
SOUTH MIDDLE TENNESSEE

CITY           SKY/WX    TMP DP  RH WIND       PRES   REMARKS
FAYETTEVILLE   SUNNY     88  66  48 CALM      29.96S HX  90
TULLAHOMA      MOSUNNY   88  66  48 N7        29.97F HX  90
WINCHESTER     MOSUNNY   90  66  45 CALM      29.96S HX  92
COLUMBIA       SUNNY     88  72  58 CALM      29.93S HX  94
SHELBYVILLE    SUNNY     90  72  55 CALM      29.96S HX  96
$$

TNZ017-018-042-046-047-032300-
NORTHEAST TENNESSEE

CITY           SKY/WX    TMP DP  RH WIND       PRES   REMARKS
TRI CITIES     MOSUNNY   88  64  44 CALM      29.98F
ELIZABETHTON   CLEAR     82  64  54 CALM      29.98S
$$

TNZ012-013-036-069-073-074-032300-
CENTRAL EAST TENNESSEE

CITY           SKY/WX    TMP DP  RH WIND       PRES   REMARKS
KNOXVILLE      MOSUNNY   90  61  37 E8        29.94F HX  90
OAK RIDGE      SUNNY     91  64  40 CALM      29.97S HX  92
GATLINBURG       N/A     90  59  35 VRB5      29.94F
$$

TNZ083-085-099-032300-
SOUTHEAST TENNESSEE

CITY           SKY/WX    TMP DP  RH WIND       PRES   REMARKS
CHATTANOOGA    MOSUNNY   91  66  43 N10       29.94F HX  93
$$

SKY/WX REPORTED AS FAIR MEANS FEW OR NO CLOUDS BELOW
12 THOUSAND FEET.




USA.gov is the U.S. government's official web portal to all federal, state and local government web resources and services.